www.pogodaiklimat.ru

Погода и климат >> Архив погоды >> Китай >> Хэйлунцзян >> Цицикар


ПОГОДА в Цицикаре

  • Прогноз погоды в Цицикаре
  • Монитор погоды в Цицикаре

АРХИВ ПОГОДЫ в Цицикаре

Время (UTC), дата Ветер
(напр.,м/с)
 
Видим.   Явления Облачность Т
(С)
Тd
(С)
f
(%)
Тe
(С)
Тes
(С)
Комфортность P
(гПа)
Po
(гПа)
Тmin
(С)
Tmax
(С)
R
(мм)
R24
(мм)
S
(см)
00 16.04 ЮЗ 3 22 км 3/3
[]
+14.3 -7.7 21 +14 +17 993.4 976.2
03 16.04 З 5 30 км 9/9
[]
+25.2 -13.0 7 +22 +23 комфорт 993.2 976.5
06 16.04 З 3 30 км 8/8
[]
+25.8 -9.5 9 +23 +25 комфорт 994.2 977.2 +7.9
09 16.04 С 4 30 км 9/9 1500 м
[]
+22.1 -4.9 16 +21 +21 комфорт 995.8 978.9
12 16.04 В 5 30 км 9/9 1500 м
[]
+15.6 -3.3 27 +15 +15 999.5 982.2
15 16.04 В 4 30 км н/о +12.4 -7.1 25 +11 +11 999.9 982.3
18 16.04 В 3 30 км н/о +8.0 -6.5 35 +6 +6 999.2 982.0 +26.4
21 16.04 В 4 30 км н/о +6.7 -5.3 42 +4 +4 996.0 978.2
00 17.04 СВ 3 30 км 10/10 1500 м
[]
+7.3 -4.8 42 +5 +5 995.0 977.5
03 17.04 СВ 3 16 км 9/9 1500 м
[]
+11.1 -2.0 40 +10 +11 993.2 975.7
06 17.04 СВ 3 12 км слаб. дождь 10/10
[]
+7.6 -1.1 54 +5 +5 992.4 974.8 +6.5 0.2
09 17.04 С 8 12 км дождь 10/10 600 м
[]
+0.9 -1.0 87 -6 -6 994.3 976.1
12 17.04 С 9 7000 м слаб. дождь {морось} 10/10 600 м
[]
-0.6 -2.3 88 -9 -9 997.7 979.7 11
15 17.04 С 8
{19}
н/о слаб. дождь ?/? -0.8 -2.7 87 -9 -9 1002.9 984.4
18 17.04 СЗ 6
{19}
30 км ?/? -0.1 -5.9 65 -6 -6 1006.7 988.5 +11.4 0.6
21 17.04 СЗ 5 30 км н/о -0.9 -8.1 58 -7 -7 1010.8 992.2
00 18.04 СЗ 6 30 км ясно +1.9 -8.2 47 -3 -1 1015.0 996.5 0.6
03 18.04 С 5 30 км ясно +6.8 -9.6 30 +4 +11 1015.8 997.6
06 18.04 СЗ 4 30 км 3/3 1000 м
[]
+10.4 -9.3 24 +9 +14 1014.7 996.5 -1.1
09 18.04 С 6 30 км ясно +10.6 -9.1 24 +8 +9 1014.6 996.7
12 18.04 СЗ 1 30 км ясно +5.4 -8.5 36 +5 +5 1016.5 998.2
15 18.04 С 1 30 км н/о +2.7 -10.2 38 +2 +2 1018.0 999.5
18 18.04 С 1 30 км н/о -0.8 -7.6 60 -2 -2 1019.0 1000.7 +12.2
21 18.04 З 1 30 км н/о -2.9 -5.7 81 -5 -5 1020.6 1001.7
00 19.04 З 1 30 км 1/1
[]
+5.4 -10.8 30 +5 +12 1021.4 1003.1
03 19.04 Ю 2 30 км 3/3
[]
+8.7 -13.0 20 +8 +18 опасность
простуды
1020.4 1002.3
06 19.04 Ю 4 30 км 8/8
[]
+11.4 -10.8 20 +10 +11 1016.5 998.3 -3.0
09 19.04 Ю 4 30 км 8/8
[]
+12.3 -8.8 22 +11 +11 1013.9 996.1
12 19.04 ЮВ 3 30 км 3/3
[]
+9.7 -7.9 28 +8 +8 1012.2 994.2
15 19.04 Ю 5 30 км слаб. морось н/о +8.8 -9.6 26 +6 +6 1009.7 991.7
18 19.04 Ю 3 30 км слаб. морось ?/? +6.9 -7.5 35 +5 +5 1006.4 988.6 +13.0
21 19.04 ЮВ 5 30 км слаб. морось н/о +6.0 -6.6 40 +2 +2 1002.7 984.7
00 20.04 ЮЗ 4 27 км слаб. морось 9/9 1500 м
[]
+7.8 -5.6 38 +5 +6 1003.6 985.8
03 20.04 СЗ 6 6000 м слаб. морось 8/8 1500 м
[]
+12.8 -15.9 12 +11 +12 1004.9 987.3
06 20.04 СЗ 5 25 км слаб. морось 1/1
[]
+14.4 -18.1 9 +13 +19 1005.9 988.2 +5.8
09 20.04 СЗ 6 8000 м слаб. морось 3/3
[]
+12.6 -19.5 9 +11 +11 1007.4 989.7
12 20.04 СЗ 3 4900 м мгла 10/10
[]
+9.7 -17.4 13 +8 +8 1010.5 992.6
15 20.04 СЗ 3 6000 м мгла н/о +6.0 -15.3 20 +4 +4 1011.9 993.7
18 20.04 З 2 12 км н/о +4.6 -13.7 25 +3 +3 1012.7 994.8 +14.7
21 20.04 З 2 12 км н/о +1.6 -13.3 32 -1 -1 1013.9 995.4
00 21.04 СЗ 6 15 км ясно +8.5 -16.7 15 +6 +8 1014.7 996.7
03 21.04 З 6 30 км ясно +11.2 -18.2 11 +9 +15 1014.2 996.3
06 21.04 З 4 30 км ясно +14.6 -17.9 9 +14 +22 1012.1 994.2 +1.5
09 21.04 З 3 30 км ясно +15.5 -16.0 10 +15 +17 1010.3 992.8
12 21.04 Ю 2 30 км ясно +13.2 -14.6 13 +13 +13 1010.7 992.9
15 21.04 ЮВ 2 30 км н/о +9.9 -9.2 25 +9 +9 1010.6 992.7
18 21.04 Ю 4 30 км н/о +8.2 -11.2 24 +6 +6 1009.8 992.1 +16.0
21 21.04 Ю 3 30 км н/о +7.6 -14.6 19 +6 +6 1009.8 991.8
00 22.04 ЮЗ 3 26 км 9/9
[]
+11.2 -14.5 15 +10 +11 1009.8 992.1
03 22.04 ЮВ 3 18 км 9/9
[]
+15.3 -10.4 16 +15 +16 1007.8 990.3
06 22.04 Ю 4 16 км 9/9
[]
+19.7 -11.6 11 +19 +20 1002.6 985.2 +7.0
09 22.04 В 3 13 км 10/10 1500 м
[]
+19.5 -6.2 17 +20 +20 999.0 981.9
12 22.04 В 4 14 км в посл. час снег 9/9 1500 м
[]
+16.8 -2.3 27 +16 +16 997.8 980.4 0.0
15 22.04 ЮЗ 4 11 км н/о +14.2 +2.4 45 +13 +13 997.1 979.7
18 22.04 З 4 11 км н/о +10.4 -3.7 37 +8 +8 998.2 980.9 +20.3
21 22.04 З 3 9000 м н/о +9.1 -9.4 26 +8 +8 1002.4 984.6

 

Местоположение метеостанции Цицикар (Хэйлунцзян, Китай): широта 47.38 долгота 123.91 высота над уровнем моря 148 м.

В архиве по умолчанию представлена погода в Цицикаре за последнюю неделю. Архивные данные за месяц целиком и за предыдущие месяцы, начиная с января 2011 года, Вы можете получить, выбрав интересующий диапазон дат из раскрывающегося списка и нажав кнопку "Ввод!".


*Определитесь, кто Вы:
робот инопланетянин человек

Внимание! Время в таблицах - всемирное. Для получения местного времени необходимо прибавить поправку, которая равна 8 ч.

Смотрите также архив погоды в соседних городах и на ближайших метеорологических станциях:

Погода в Тайлае (Хэйлунцзян, Китай) (115 км)
Погода в Аньда (Хэйлунцзян, Китай) (154 км)
Погода в Кэшане (Хэйлунцзян, Китай) (165 км)
Погода в Сяо Эргу (Внутренняя Монголия, Китай) (203 км)
Погода в Ксиджоу (Внутренняя Монголия, Китай) (214 км)
Погода в Нацзине (Хэйлунцзян, Китай) (222 км)
Погода в Хайлуне (Хэйлунцзян, Китай) (230 км)
Погода в Цянь Горлос (Гирин, Китай) (266 км)
Погода в Харбине (Хэйлунцзян, Китай) (283 км)
Погода в Аршане (Внутренняя Монголия, Китай) (301 км)

Пояснения к столбцам:

Ветер - указаны скорость ветра в м/с - средняя за 10 мин, порывы в срок и между сроками (в фигурных скобках) и направление, откуда дует ветер: С - северный, СВ - северо-восточный, В - восточный, ЮВ - юго-восточный, Ю - южный, ЮЗ - юго-западный, З - западный, СЗ - северо-западный.
Видимость - горизонтальная дальность видимости в метрах или километрах. При видимости от 1 до 10 км при отсутствии осадков обычно наблюдается дымка, при ухудшении видимости до 1 км и менее - туман. В сухую погоду видимость может ухудшаться дымом, пылью или мглою.
Явления - указаны атмосферные явления, наблюдавшиеся в срок или в последний час перед сроком; фигурными скобками обозначены явления, наблюдавшиеся между сроками (за 1-3 часа до срока); квадратными скобками обозначены град или гололедные отложения с указанием их диаметра в мм.
Облачность - указаны через наклонную черту общая и нижняя облачность в баллах и высота нижней границы облаков в метрах; квадратными скобками обозначены формы облаков: Ci - перистые, Cs - перисто-слоистые, Cc - перисто-кучевые, Ac - высококучевые, As - высокослоистые, Sc - слоисто-кучевые, Ns - слоисто-дождевые, Cu - кучевые, Cb - кучево-дождевые. Подробнее классификацию облаков см. в Атласе облаков (PDF).
T - Температура воздуха - температура, измеренная на высоте 2 м над землей.
Td - Температура точки росы - температура, при понижении до которой содержащийся в воздухе водяной пар достигнет насыщения.
f - Относительная влажность воздуха - влажноcть воздуха, измеренная на высоте 2 м над землей.
Te - Эффективная температура - температура, которую ощущает одетый по сезону человек в тени. Характеристика душности погоды. При расчете учитывается влияние влажности воздуха и скорости ветра на теплоощущения человека.
Tes - Эффективная температура на солнце - температура, которую ощущает человек, с поправкой на солнечный нагрев. Характеристика знойности погоды. Зависит от высоты солнца над горизонтом, облачности и скорости ветра. Ночью, в пасмурную погоду, а также при ветре 12 м/с и более поправка равна нулю.
P - Атмосферное давление - приведенное к уровню моря атмосферное давление.
Po - Атмосферное давление - измеренное на уровне метеостанции атмосферное давление.
Tmin - Минимальная температура - минимум температуры воздуха на высоте 2 м над землей.
Tmax - Максимальная температура - максимум температуры воздуха на высоте 2 м над землей.
R - Количество осадков - Количество выпавших осадков за период времени, мм. При наведении курсора мыши на число - период времени, за который выпало указанное количество осадков.
R24 - Количество осадков - Количество выпавших осадков за 24 часа, мм.
S - Снежный покров - Высота снежного покрова, см. При наведении курсора мыши на число - состояние снежного покрова и степень покрытия местности в баллах.